Starlink 35645

operational
NORAD ID: 66124 Int'l Des: 2025-237 Owner: SPXS Country: US Constellation: starlink
LEOCIRCULAR

About Starlink 35645

Description loading...

Live Position

Loading 3D Globe...

Upcoming Passes

Altitude History

Altitude vs Time

uPlot chart will show altitude changes over time

Two-Line Element Set

1 66124U 25237L 25310.91668981 -.00253812 00000-0 -17842-2 0 9994
2 66124 53.1600 257.5932 0001613 82.8388 329.4808 15.74149041 3729
Epoch: Nov 6, 2025 • Age: 6 hours

Current Status

Altitude 351.2 km
Velocity 7.70 km/s
Sub-Earth Point 45.72°N, 162.62°W
Launch Date Oct 22, 2025
Age 15 days
Type internet

Technical Details

Classification Payload
Mass 575.00 kg
Dry Mass 530.00 kg
Total Mass 575.00 kg
Length 0.30 m
Diameter 4.10 m
Span 29.00 m
Shape Box + pan
Manufacturer SPXS
Bus Type Starlink V2MO
Phase Status In Orbit
Owner/State SPXS/US

Large Constellations

Loading constellations...